Location: Colebrook
(42.0017°N, 73.0973°W)
Time: 03:50:12
(UTC-04:00)

A-11 Canister half - All Passes

Search period start: 21 October 2021 00:00
Search period end: 31 October 2021 00:00
Orbit: 1515 x 1684 km, 47.2° (Epoch: 20 October)

Date Brightness Start Highest point End Pass type
(mag) Time Alt. Az. Time Alt. Az. Time Alt. Az.
21 Oct - 00:21:05 10° WNW 00:30:55 78° NNE 00:40:21 10° ESE visible
21 Oct - 02:26:28 10° WNW 02:35:33 50° SW 02:44:23 10° SSE night (unlit)
21 Oct - 04:35:14 10° W 04:38:37 12° WSW 04:41:57 10° SW visible
21 Oct - 17:44:04 10° S 17:52:29 31° SE 18:00:44 10° ENE daylight
21 Oct - 19:46:30 10° SW 19:56:36 80° SSE 20:06:25 10° ENE visible
21 Oct - 21:52:09 10° W 22:02:06 66° N 22:11:42 10° ENE visible
21 Oct - 23:58:05 10° WNW 00:07:57 76° NNE 00:17:25 10° ESE visible
22 Oct - 02:03:29 10° WNW 02:12:42 53° SW 02:21:37 10° SSE night (unlit)
22 Oct - 04:11:36 10° W 04:15:50 14° WSW 04:20:01 10° SSW night (unlit)
22 Oct - 17:21:26 10° S 17:29:37 29° SE 17:37:41 10° ENE daylight
22 Oct - 19:23:34 10° SW 19:33:39 78° SSE 19:43:30 10° ENE visible
22 Oct - 21:29:07 10° W 21:39:07 67° N 21:48:45 10° ENE visible
22 Oct - 23:35:07 10° WNW 23:45:00 75° NNE 23:54:29 10° ESE visible
23 Oct - 01:40:30 10° WNW 01:49:50 56° SW 01:58:50 10° SE night (unlit)
23 Oct - 03:48:09 10° W 03:53:02 15° WSW 03:57:53 10° SSW night (unlit)
23 Oct - 16:58:49 10° S 17:06:47 27° SE 17:14:37 10° ENE daylight
23 Oct - 19:00:38 10° SW 19:10:44 75° SSE 19:20:34 10° ENE visible
23 Oct - 21:06:06 10° W 21:16:07 68° N 21:25:48 10° ENE visible
23 Oct - 23:12:07 10° WNW 23:22:02 73° NNE 23:31:33 10° E visible
24 Oct - 01:17:31 10° WNW 01:26:57 59° SW 01:36:04 10° SE night (unlit)
24 Oct - 03:24:47 10° W 03:30:15 17° SW 03:35:39 10° SSW night (unlit)
24 Oct - 16:36:14 10° S 16:43:56 25° SE 16:51:31 10° ENE daylight
24 Oct - 18:37:43 10° SW 18:47:48 72° SSE 18:57:38 10° ENE visible
24 Oct - 20:43:04 10° W 20:53:08 69° N 21:02:51 10° ENE visible
24 Oct - 22:49:08 10° WNW 22:59:04 72° NNE 23:08:37 10° E visible
25 Oct - 00:54:32 10° WNW 01:04:04 62° SW 01:13:16 10° SE visible
25 Oct - 03:01:31 10° W 03:07:27 19° SW 03:13:20 10° SSW night (unlit)
25 Oct - 16:13:41 10° S 16:21:05 23° SE 16:28:24 10° E daylight
25 Oct - 18:14:50 10° SW 18:24:53 69° SE 18:34:42 10° ENE visible
25 Oct - 20:20:04 10° W 20:30:08 70° NNW 20:39:55 10° ENE visible
25 Oct - 22:26:09 10° WNW 22:36:06 71° NNE 22:45:40 10° E visible
26 Oct - 00:31:34 10° WNW 00:41:11 65° SW 00:50:27 10° SE visible
26 Oct - 02:38:16 10° W 02:44:40 20° SW 02:50:57 10° S night (unlit)
26 Oct - 15:51:11 10° S 15:58:15 22° SE 16:05:14 10° E daylight
26 Oct - 17:51:56 10° SW 18:01:57 66° SE 18:11:45 10° ENE daylight
26 Oct - 19:57:02 10° W 20:07:09 71° NNW 20:16:58 10° ENE visible
26 Oct - 22:03:08 10° WNW 22:13:07 69° NNE 22:22:42 10° E visible
27 Oct - 00:08:36 10° WNW 00:18:18 68° SW 00:27:37 10° SE visible
27 Oct - 02:15:05 10° W 02:21:52 22° SW 02:28:31 10° S night (unlit)
27 Oct - 15:28:44 10° SSE 15:35:25 20° SE 15:42:03 10° E daylight
27 Oct - 17:29:04 10° SW 17:39:02 63° SE 17:48:49 10° ENE daylight
27 Oct - 19:34:01 10° W 19:44:10 72° NNW 19:54:01 10° ENE visible
27 Oct - 21:40:08 10° WNW 21:50:08 68° N 21:59:45 10° E visible
27 Oct - 23:45:37 10° WNW 23:55:24 72° SSW 00:04:47 10° SE visible
28 Oct - 01:51:55 10° W 01:59:03 24° SW 02:06:02 10° S night (unlit)
28 Oct - 15:06:20 10° SSE 15:12:35 18° SE 15:18:48 10° E daylight
28 Oct - 17:06:13 10° SW 17:16:07 60° SE 17:25:52 10° ENE daylight
28 Oct - 19:11:01 10° WSW 19:21:11 74° NNW 19:31:05 10° ENE visible
28 Oct - 21:17:07 10° WNW 21:27:08 68° N 21:36:47 10° E visible
28 Oct - 23:22:39 10° WNW 23:32:30 75° SSW 23:41:56 10° SE visible
29 Oct - 01:28:48 10° WNW 01:36:14 26° SW 01:43:31 10° S night (unlit)
29 Oct - 14:43:59 10° SSE 14:49:45 17° ESE 14:55:30 10° E daylight
29 Oct - 16:43:22 10° SW 16:53:12 57° SE 17:02:55 10° ENE daylight
29 Oct - 18:48:00 10° WSW 18:58:12 76° NNW 19:08:08 10° ENE visible
29 Oct - 20:54:07 10° WNW 21:04:09 67° N 21:13:49 10° E visible
29 Oct - 22:59:41 10° WNW 23:09:34 78° SSW 23:19:05 10° SE visible
30 Oct - 01:05:42 10° WNW 01:13:25 28° SW 01:20:59 10° S night (unlit)
30 Oct - 14:21:44 10° SSE 14:26:56 15° ESE 14:32:07 10° E daylight
30 Oct - 16:20:32 10° SSW 16:30:17 54° SE 16:39:56 10° ENE daylight
30 Oct - 18:25:01 10° WSW 18:35:12 77° NNW 18:45:11 10° ENE visible
30 Oct - 20:31:07 10° WNW 20:41:10 66° N 20:50:52 10° E visible
30 Oct - 22:36:42 10° WNW 22:46:39 81° SSW 22:56:12 10° SE visible
